Home > Weather > Austin > Past weeks

Flag for USA Past Weather in Austin, Texas, USA — Yesterday and Last 2 Weeks

Now
87 °F

Mostly cloudy.


Feels Like: 99 °F
Forecast: 74 / 82 °F
Wind: 5 mph from North

Location: Camp Mabry / Austin City

Current Time: May 26, 2016 at 5:27:47 PM

Latest Report: May 26, 2016 at 4:51 PM


Visibility: 6 mi

Pressure: 29.73 "Hg

Humidity: 72%

Dew Point: 77 °F

Location of AustinLocation

Past Weather in Austin — Graph

°F

Austin Temperature Yesterday

Maximum temperature yesterday: 85 °F (at 3:51 PM)
Minimum temperature yesterday: 77 °F (at 12:51 AM)
Average temperature yesterday: 80 °F

High & Low Weather Summary for the Past Weeks

 TemperatureHumidityPressure
High89 °F (May 26, 3:51 PM)100% (May 16, 12:51 AM)30.16 "Hg (May 16, 12:51 AM)
Low61 °F (May 19, 7:51 AM)55% (May 20, 4:51 PM)29.75 "Hg (May 26, 3:51 PM)
Average74 °F81%29.97 "Hg
* Reported May 11 3:51 PM — May 26 3:51 PM, Austin, Weather by CustomWeather, © 2016

Note: Actual official high and low records may vary slightly from our data, if they occured in-between our weather recording intervals... More about our weather records

Advertising

Austin Weather History for the Previous 24 Hours

Scroll right to see more
 ConditionsComfort  
Time TempWeatherWind HumidityBarometerVisibility
3:51 PM
Thu, May 26
89 °FPassing clouds.8 mph68%29.75 "Hg7 mi
2:51 PM87 °FPassing clouds.8 mph61%29.78 "Hg10 mi
2:04 PM87 °FThunderstorms. Partly sunny.12 mph72%29.84 "Hg6 mi
1:51 PM88 °FBroken clouds.9 mph70%29.80 "Hg7 mi
12:51 PM87 °FBroken clouds.8 mph72%29.83 "Hg8 mi
11:51 AM85 °FPartly sunny.3 mph77%29.85 "Hg7 mi
10:51 AM81 °FLight rain. Fog.N/A88%29.89 "Hg6 mi
9:51 AM79 °FFog.7 mph90%29.91 "Hg5 mi
8:51 AM79 °FFog.3 mph90%29.92 "Hg5 mi
7:51 AM78 °FFog.3 mph93%29.91 "Hg5 mi
6:51 AM77 °FLight rain. Fog.5 mph94%29.90 "Hg6 mi
5:51 AM78 °FMostly cloudy.6 mph90%29.90 "Hg9 mi
4:51 AM78 °FOvercast.7 mph90%29.90 "Hg9 mi
3:51 AM78 °FOvercast.7 mph87%29.90 "Hg8 mi
2:51 AM78 °FOvercast.9 mph87%29.91 "Hg9 mi
1:51 AM78 °FOvercast.6 mph87%29.91 "Hg10 mi
12:51 AM78 °FMostly cloudy.7 mph87%29.93 "Hg10 mi
11:51 PM
Wed, May 25
79 °FOvercast.9 mph84%29.95 "Hg10 mi
10:51 PM80 °FOvercast.8 mph81%29.96 "Hg10 mi
9:51 PM81 °FMostly cloudy.6 mph79%29.95 "Hg10 mi
8:51 PM82 °FOvercast.6 mph79%29.93 "Hg10 mi
7:51 PM82 °FOvercast.6 mph79%29.92 "Hg10 mi
6:51 PM83 °FMostly cloudy.8 mph77%29.91 "Hg9 mi
5:51 PM83 °FMostly cloudy.6 mph79%29.91 "Hg6 mi
Weather by CustomWeather, © 2016

See weather overviewHow to use our weather pages